| time (UTC) | temp F | wind direction | speed MPH | gust MPH | rain 1hr in | rain 24hr in | rain mn in | humidity % | barometer mb |
| 20260503050018 | 45 | 350 | 0.0 | 1.0 | 0.00 | 0.00 | 0.00 | 62 | 1009.1 |
| 20260503045515 | 46 | 18 | 0.0 | 1.0 | 0.00 | 0.00 | 0.00 | 62 | 1009.2 |
| 20260503045012 | 45 | 4 | 1.0 | 2.0 | 0.00 | 0.00 | 0.00 | 61 | 1009.1 |
| 20260503044508 | 46 | 35 | 0.0 | 1.0 | 0.00 | 0.00 | 0.00 | 63 | 1009.0 |
| 20260503044006 | 46 | 27 | 1.0 | 2.0 | 0.00 | 0.00 | 0.00 | 63 | 1009.2 |
| 20260503043502 | 46 | 50 | 0.0 | 0.0 | 0.00 | 0.00 | 0.00 | 65 | 1009.5 |
| 20260503042958 | 46 | 318 | 0.0 | 1.0 | 0.00 | 0.00 | 0.00 | 64 | 1009.6 |
| 20260503042455 | 46 | 357 | 1.0 | 1.0 | 0.00 | 0.00 | 0.00 | 68 | 1009.7 |
| 20260503041952 | 46 | 303 | 1.0 | 2.0 | 0.00 | 0.00 | 0.00 | 70 | 1009.5 |
| 20260503041449 | 46 | 25 | 0.0 | 2.0 | 0.00 | 0.00 | 0.00 | 70 | 1009.7 |
| 20260503040947 | 46 | 0 | 0.0 | 0.0 | 0.00 | 0.00 | 0.00 | 72 | 1009.7 |
| 20260503040443 | 46 | 350 | 0.0 | 1.0 | 0.00 | 0.00 | 0.00 | 75 | 1009.3 |
| 20260503035941 | 46 | 25 | 2.0 | 2.0 | 0.00 | 0.08 | 0.08 | 76 | 1009.6 |
| 20260503035437 | 46 | 42 | 0.0 | 1.0 | 0.00 | 0.08 | 0.08 | 77 | 1009.6 |
| 20260503034935 | 46 | 324 | 0.0 | 0.0 | 0.00 | 0.08 | 0.08 | 81 | 1009.9 |
| 20260503034433 | 46 | 41 | 0.0 | 0.0 | 0.00 | 0.08 | 0.08 | 83 | 1009.9 |
| 20260503033929 | 46 | 0 | 0.0 | 1.0 | 0.00 | 0.08 | 0.08 | 87 | 1009.9 |
| 20260503033427 | 46 | 16 | 0.0 | 1.0 | 0.00 | 0.08 | 0.08 | 91 | 1009.8 |
| 20260503032925 | 46 | 17 | 0.0 | 1.0 | 0.00 | 0.08 | 0.08 | 95 | 1009.7 |
| 20260503032423 | 46 | 37 | 0.0 | 1.0 | 0.00 | 0.08 | 0.08 | 96 | 1009.7 |
| 20260503031920 | 46 | 310 | 0.0 | 0.0 | 0.00 | 0.08 | 0.08 | 96 | 1009.8 |
| 20260503031418 | 46 | 291 | 0.0 | 1.0 | 0.00 | 0.08 | 0.08 | 96 | 1009.6 |
| 20260503030914 | 46 | 316 | 1.0 | 1.0 | 0.00 | 0.08 | 0.08 | 96 | 1009.8 |
| 20260503030411 | 46 | 337 | 0.0 | 1.0 | 0.00 | 0.08 | 0.08 | 96 | 1009.6 |
| 20260503025908 | 46 | 330 | 1.0 | 1.0 | 0.00 | 0.08 | 0.08 | 96 | 1009.7 |
| 20260503025405 | 46 | 331 | 0.0 | 0.0 | 0.00 | 0.08 | 0.08 | 95 | 1009.6 |
| 20260503024902 | 46 | 311 | 1.0 | 1.0 | 0.00 | 0.08 | 0.08 | 95 | 1009.8 |
| 20260503024358 | 46 | 258 | 0.0 | 0.0 | 0.00 | 0.08 | 0.08 | 95 | 1009.7 |
| 20260503023855 | 46 | 259 | 0.0 | 0.0 | 0.00 | 0.08 | 0.08 | 95 | 1009.6 |
| 20260503023353 | 46 | 258 | 0.0 | 0.0 | 0.00 | 0.08 | 0.08 | 95 | 1009.5 |
| 20260503022850 | 46 | 258 | 0.0 | 0.0 | 0.00 | 0.08 | 0.08 | 95 | 1009.8 |
| 20260503022349 | 46 | 258 | 0.0 | 0.0 | 0.00 | 0.08 | 0.08 | 95 | 1009.7 |
| 20260503021846 | 46 | 258 | 0.0 | 0.0 | 0.00 | 0.08 | 0.08 | 95 | 1009.8 |
| 20260503021342 | 46 | 258 | 0.0 | 0.0 | 0.00 | 0.08 | 0.08 | 95 | 1009.7 |
| 20260503020840 | 46 | 258 | 0.0 | 0.0 | 0.00 | 0.08 | 0.08 | 95 | 1009.9 |
| 20260503020338 | 46 | 258 | 0.0 | 0.0 | 0.00 | 0.08 | 0.08 | 95 | 1009.8 |
| 20260503015834 | 47 | 258 | 0.0 | 0.0 | 0.00 | 0.08 | 0.08 | 94 | 1009.6 |
| 20260503015331 | 47 | 258 | 0.0 | 0.0 | 0.00 | 0.08 | 0.08 | 94 | 1009.7 |
| 20260503014827 | 47 | 258 | 0.0 | 0.0 | 0.00 | 0.08 | 0.08 | 94 | 1009.7 |
| 20260503014325 | 47 | 258 | 0.0 | 0.0 | 0.00 | 0.08 | 0.08 | 94 | 1009.8 |
| 20260503013822 | 47 | 258 | 0.0 | 0.0 | 0.00 | 0.08 | 0.08 | 94 | 1009.9 |
| 20260503013319 | 47 | 258 | 0.0 | 0.0 | 0.00 | 0.08 | 0.08 | 94 | 1010.0 |
| 20260503012816 | 47 | 258 | 0.0 | 0.0 | 0.00 | 0.08 | 0.08 | 94 | 1010.0 |
| 20260503012314 | 47 | 258 | 0.0 | 0.0 | 0.00 | 0.08 | 0.08 | 94 | 1010.1 |
| 20260503011810 | 47 | 258 | 0.0 | 0.0 | 0.00 | 0.08 | 0.08 | 94 | 1010.2 |
| 20260503011307 | 47 | 258 | 0.0 | 0.0 | 0.00 | 0.08 | 0.08 | 94 | 1010.0 |
| 20260503010803 | 47 | 258 | 0.0 | 0.0 | 0.00 | 0.08 | 0.08 | 94 | 1009.9 |
| 20260503010301 | 47 | 258 | 0.0 | 0.0 | 0.00 | 0.08 | 0.08 | 93 | 1009.8 |
| 20260503005758 | 48 | 258 | 0.0 | 0.0 | 0.00 | 0.08 | 0.08 | 93 | 1009.9 |
| 20260503005255 | 48 | 258 | 0.0 | 0.0 | 0.00 | 0.08 | 0.08 | 93 | 1009.8 |
| 20260503004751 | 48 | 258 | 0.0 | 0.0 | 0.00 | 0.08 | 0.08 | 93 | 1009.8 |
| 20260503004249 | 48 | 258 | 0.0 | 0.0 | 0.00 | 0.08 | 0.08 | 93 | 1009.7 |
| 20260503003746 | 48 | 258 | 0.0 | 0.0 | 0.00 | 0.08 | 0.08 | 92 | 1009.5 |
| 20260503003243 | 48 | 258 | 0.0 | 0.0 | 0.00 | 0.08 | 0.08 | 92 | 1009.7 |
| 20260503002740 | 48 | 258 | 0.0 | 0.0 | 0.00 | 0.08 | 0.08 | 92 | 1009.6 |
| 20260503002237 | 48 | 258 | 0.0 | 0.0 | 0.00 | 0.08 | 0.08 | 92 | 1009.7 |
| 20260503001733 | 48 | 258 | 0.0 | 0.0 | 0.00 | 0.08 | 0.08 | 92 | 1009.5 |
| 20260503001229 | 48 | 258 | 0.0 | 0.0 | 0.00 | 0.08 | 0.08 | 91 | 1009.5 |
| 20260503000728 | 49 | 258 | 0.0 | 0.0 | 0.00 | 0.08 | 0.08 | 91 | 1009.6 |
| 20260503000225 | 49 | 258 | 0.0 | 0.0 | 0.00 | 0.08 | 0.08 | 91 | 1009.7 |
| 20260502235721 | 49 | 257 | 0.0 | 0.0 | 0.00 | 0.08 | 0.08 | 90 | 1009.5 |
| 20260502235219 | 49 | 257 | 0.0 | 0.0 | 0.00 | 0.08 | 0.08 | 90 | 1009.7 |
| 20260502234715 | 49 | 257 | 0.0 | 0.0 | 0.00 | 0.08 | 0.08 | 90 | 1009.7 |
| 20260502234213 | 49 | 257 | 0.0 | 0.0 | 0.00 | 0.08 | 0.08 | 90 | 1009.8 |
| 20260502233708 | 49 | 257 | 0.0 | 0.0 | 0.00 | 0.08 | 0.08 | 90 | 1009.7 |
| 20260502233205 | 49 | 256 | 0.0 | 0.0 | 0.00 | 0.08 | 0.08 | 90 | 1009.6 |
| 20260502232701 | 49 | 326 | 0.0 | 0.0 | 0.00 | 0.08 | 0.08 | 90 | 1009.7 |
| 20260502232158 | 49 | 326 | 0.0 | 0.0 | 0.00 | 0.08 | 0.08 | 90 | 1009.9 |
| 20260502231655 | 49 | 349 | 0.0 | 0.0 | 0.00 | 0.08 | 0.08 | 90 | 1009.8 |
| 20260502231153 | 49 | 323 | 0.0 | 0.0 | 0.00 | 0.08 | 0.08 | 90 | 1009.6 |
| 20260502230651 | 49 | 41 | 0.0 | 0.0 | 0.00 | 0.08 | 0.08 | 90 | 1009.6 |
| 20260502230149 | 49 | 317 | 0.0 | 0.0 | 0.00 | 0.08 | 0.08 | 89 | 1009.7 |
| 20260502225644 | 49 | 344 | 0.0 | 0.0 | 0.00 | 0.08 | 0.08 | 90 | 1009.9 |
| 20260502225142 | 49 | 136 | 0.0 | 0.0 | 0.00 | 0.08 | 0.08 | 89 | 1009.8 |
| 20260502224638 | 49 | 288 | 0.0 | 0.0 | 0.00 | 0.08 | 0.08 | 89 | 1009.7 |
| 20260502224135 | 50 | 240 | 0.0 | 0.0 | 0.00 | 0.08 | 0.08 | 89 | 1009.6 |
| 20260502223633 | 50 | 225 | 0.0 | 0.0 | 0.00 | 0.08 | 0.08 | 89 | 1009.8 |
| 20260502223131 | 50 | 200 | 0.0 | 0.0 | 0.00 | 0.08 | 0.08 | 89 | 1009.6 |
| 20260502222628 | 50 | 198 | 0.0 | 0.0 | 0.00 | 0.08 | 0.08 | 89 | 1009.7 |
| 20260502222125 | 50 | 276 | 0.0 | 0.0 | 0.00 | 0.08 | 0.08 | 89 | 1009.7 |
| 20260502221620 | 50 | 272 | 0.0 | 0.0 | 0.00 | 0.08 | 0.08 | 88 | 1009.9 |
| 20260502221117 | 50 | 287 | 0.0 | 0.0 | 0.00 | 0.08 | 0.08 | 88 | 1009.7 |
| 20260502220614 | 50 | 228 | 0.0 | 0.0 | 0.00 | 0.08 | 0.08 | 88 | 1009.6 |
| 20260502220110 | 50 | 230 | 0.0 | 0.0 | 0.00 | 0.08 | 0.08 | 88 | 1009.6 |
| 20260502215607 | 50 | 254 | 0.0 | 0.0 | 0.00 | 0.08 | 0.08 | 88 | 1009.5 |
| 20260502215104 | 50 | 259 | 0.0 | 0.0 | 0.00 | 0.08 | 0.08 | 89 | 1009.7 |
| 20260502214601 | 50 | 282 | 0.0 | 0.0 | 0.00 | 0.08 | 0.08 | 88 | 1009.8 |
| 20260502214058 | 50 | 244 | 1.0 | 1.0 | 0.00 | 0.08 | 0.08 | 88 | 1009.7 |
| 20260502213555 | 50 | 301 | 0.0 | 1.0 | 0.00 | 0.08 | 0.08 | 87 | 1009.8 |
| 20260502213053 | 50 | 320 | 0.0 | 1.0 | 0.00 | 0.08 | 0.08 | 87 | 1009.5 |
| 20260502212552 | 50 | 259 | 1.0 | 2.0 | 0.00 | 0.08 | 0.08 | 86 | 1009.5 |
| 20260502212049 | 50 | 303 | 1.0 | 1.0 | 0.00 | 0.08 | 0.08 | 87 | 1009.6 |
| 20260502211544 | 50 | 298 | 0.0 | 1.0 | 0.00 | 0.08 | 0.08 | 86 | 1009.7 |
| 20260502211042 | 50 | 316 | 2.0 | 3.0 | 0.00 | 0.08 | 0.08 | 87 | 1009.7 |
| 20260502210538 | 50 | 280 | 1.0 | 1.0 | 0.00 | 0.08 | 0.08 | 87 | 1009.5 |
| 20260502210036 | 50 | 310 | 1.0 | 4.0 | 0.00 | 0.08 | 0.08 | 87 | 1009.4 |
| 20260502205532 | 50 | 125 | 0.0 | 0.0 | 0.00 | 0.08 | 0.08 | 88 | 1009.6 |
| 20260502205030 | 50 | 293 | 0.0 | 1.0 | 0.00 | 0.08 | 0.08 | 87 | 1009.5 |
| 20260502204526 | 50 | 287 | 0.0 | 3.0 | 0.00 | 0.08 | 0.08 | 87 | 1009.7 |
| 20260502204024 | 50 | 341 | 1.0 | 2.0 | 0.00 | 0.08 | 0.08 | 87 | 1009.7 |
| 20260502203521 | 50 | 223 | 1.0 | 2.0 | 0.00 | 0.08 | 0.08 | 88 | 1009.6 |
| 20260502203018 | 50 | 239 | 0.0 | 0.0 | 0.00 | 0.08 | 0.08 | 87 | 1009.6 |
| 20260502202514 | 50 | 303 | 0.0 | 0.0 | 0.00 | 0.08 | 0.08 | 88 | 1009.7 |
| 20260502202013 | 50 | 302 | 1.0 | 1.0 | 0.00 | 0.08 | 0.08 | 88 | 1009.7 |
| 20260502201508 | 50 | 288 | 0.0 | 1.0 | 0.00 | 0.08 | 0.08 | 88 | 1009.8 |
| 20260502201004 | 50 | 278 | 0.0 | 1.0 | 0.00 | 0.08 | 0.08 | 88 | 1010.0 |
| 20260502200500 | 50 | 278 | 0.0 | 0.0 | 0.00 | 0.08 | 0.08 | 88 | 1009.9 |
| 20260502195958 | 50 | 277 | 0.0 | 0.0 | 0.00 | 0.08 | 0.08 | 88 | 1010.0 |
| 20260502195456 | 50 | 286 | 0.0 | 1.0 | 0.00 | 0.08 | 0.08 | 89 | 1010.0 |
| 20260502194951 | 50 | 261 | 0.0 | 1.0 | 0.00 | 0.08 | 0.08 | 89 | 1010.1 |
| 20260502194449 | 50 | 314 | 1.0 | 2.0 | 0.00 | 0.08 | 0.08 | 89 | 1010.1 |
| 20260502193944 | 50 | 293 | 1.0 | 2.0 | 0.00 | 0.08 | 0.08 | 90 | 1010.2 |
| 20260502193442 | 50 | 263 | 0.0 | 1.0 | 0.00 | 0.08 | 0.08 | 90 | 1010.3 |
| 20260502192937 | 49 | 300 | 0.0 | 0.0 | 0.00 | 0.08 | 0.08 | 90 | 1010.2 |
| 20260502192434 | 49 | 236 | 1.0 | 2.0 | 0.00 | 0.08 | 0.08 | 90 | 1010.3 |
| 20260502191931 | 49 | 300 | 0.0 | 1.0 | 0.00 | 0.08 | 0.08 | 91 | 1010.4 |
| 20260502191429 | 49 | 308 | 0.0 | 1.0 | 0.00 | 0.08 | 0.08 | 91 | 1010.3 |
| 20260502190927 | 49 | 318 | 1.0 | 1.0 | 0.00 | 0.08 | 0.08 | 91 | 1010.3 |
| 20260502190424 | 49 | 234 | 0.0 | 2.0 | 0.00 | 0.08 | 0.08 | 91 | 1010.5 |
| 20260502185920 | 49 | 267 | 1.0 | 1.0 | 0.07 | 0.08 | 0.08 | 91 | 1010.4 |
| 20260502185415 | 49 | 221 | 2.0 | 2.0 | 0.07 | 0.08 | 0.08 | 91 | 1010.5 |
| 20260502184913 | 49 | 197 | 1.0 | 1.0 | 0.00 | 0.07 | 0.07 | 92 | 1010.5 |
| 20260502184408 | 49 | 3 | 0.0 | 0.0 | 0.00 | 0.07 | 0.07 | 92 | 1010.5 |
| 20260502183905 | 49 | 309 | 0.0 | 0.0 | 0.00 | 0.07 | 0.07 | 93 | 1010.7 |
| 20260502183401 | 49 | 280 | 0.0 | 1.0 | 0.00 | 0.07 | 0.07 | 92 | 1010.8 |
| 20260502182856 | 49 | 271 | 0.0 | 0.0 | 0.00 | 0.07 | 0.07 | 92 | 1010.8 |
| 20260502182352 | 48 | 315 | 0.0 | 3.0 | 0.00 | 0.07 | 0.07 | 92 | 1010.7 |
| 20260502181848 | 49 | 142 | 0.0 | 1.0 | 0.00 | 0.07 | 0.07 | 92 | 1010.9 |
| 20260502181347 | 48 | 251 | 0.0 | 1.0 | 0.00 | 0.07 | 0.07 | 92 | 1010.8 |
| 20260502180845 | 48 | 300 | 0.0 | 1.0 | 0.00 | 0.07 | 0.07 | 92 | 1010.8 |
| 20260502180342 | 49 | 300 | 0.0 | 0.0 | 0.00 | 0.07 | 0.07 | 92 | 1010.6 |
| 20260502170300 | 49 | 280 | 0.0 | 1.0 | 0.00 | 0.04 | 0.04 | 91 | 1011.0 |
| 20260502164248 | 49 | 160 | 0.0 | 0.0 | 0.05 | 0.03 | 0.03 | 87 | 1011.1 |
| 20260502163743 | 50 | 325 | 0.0 | 1.0 | 0.07 | 0.02 | 0.02 | 89 | 1011.1 |
| 20260502163241 | 50 | 278 | 1.0 | 1.0 | 0.07 | 0.02 | 0.02 | 89 | 1011.1 |
| 20260502162738 | 50 | 216 | 0.0 | 0.0 | 0.05 | 0.01 | 0.01 | 87 | 1011.1 |
| 20260502162234 | 50 | 247 | 1.0 | 2.0 | 0.05 | 0.01 | 0.01 | 85 | 1011.2 |
| 20260502161731 | 51 | 319 | 0.0 | 0.0 | 0.00 | 0.00 | 0.00 | 83 | 1011.2 |
| 20260502161227 | 51 | 275 | 1.0 | 2.0 | 0.00 | 0.00 | 0.00 | 80 | 1011.4 |
| 20260502160726 | 51 | 42 | 0.0 | 2.0 | 0.00 | 0.00 | 0.00 | 78 | 1011.1 |
| 20260502160225 | 52 | 307 | 1.0 | 1.0 | 0.00 | 0.00 | 0.00 | 68 | 1011.0 |
| 20260502152149 | 54 | 275 | 1.0 | 3.0 | 0.00 | 0.00 | 0.00 | 72 | 1011.1 |
| 20260502151646 | 54 | 130 | 0.0 | 1.0 | 0.00 | 0.00 | 0.00 | 72 | 1011.3 |
| 20260502151143 | 53 | 106 | 0.0 | 0.0 | 0.00 | 0.00 | 0.00 | 72 | 1011.3 |
| 20260502150641 | 53 | 267 | 1.0 | 2.0 | 0.00 | 0.00 | 0.00 | 71 | 1011.2 |
| 20260502150137 | 54 | 316 | 1.0 | 2.0 | 0.00 | 0.00 | 0.00 | 73 | 1011.4 |
| 20260502130526 | 49 | 235 | 0.0 | 1.0 | 0.00 | 0.00 | 0.00 | 83 | 1011.9 |
| 20260502123509 | 48 | 313 | 1.0 | 2.0 | 0.00 | 0.00 | 0.00 | 84 | 1012.2 |
| 20260502123005 | 48 | 266 | 0.0 | 2.0 | 0.00 | 0.00 | 0.00 | 84 | 1012.0 |
| 20260502122501 | 48 | 233 | 0.0 | 2.0 | 0.00 | 0.00 | 0.00 | 84 | 1011.7 |
| 20260502121959 | 48 | 298 | 1.0 | 2.0 | 0.00 | 0.00 | 0.00 | 85 | 1012.0 |
| 20260502121456 | 48 | 287 | 0.0 | 2.0 | 0.00 | 0.00 | 0.00 | 85 | 1012.0 |
| 20260502120954 | 48 | 310 | 2.0 | 2.0 | 0.00 | 0.00 | 0.00 | 85 | 1011.9 |
| 20260502120450 | 47 | 247 | 1.0 | 2.0 | 0.00 | 0.00 | 0.00 | 85 | 1012.0 |
| 20260502115444 | 47 | 315 | 0.0 | 1.0 | 0.00 | 0.00 | 0.00 | 85 | 1011.8 |
| 20260502114940 | 47 | 271 | 0.0 | 0.0 | 0.00 | 0.00 | 0.00 | 85 | 1011.9 |
| 20260502114437 | 47 | 255 | 0.0 | 0.0 | 0.00 | 0.00 | 0.00 | 85 | 1011.9 |
| 20260502113935 | 47 | 356 | 1.0 | 1.0 | 0.00 | 0.00 | 0.00 | 86 | 1011.6 |
| 20260502113432 | 46 | 243 | 1.0 | 1.0 | 0.00 | 0.00 | 0.00 | 86 | 1011.4 |
| 20260502112931 | 46 | 288 | 0.0 | 0.0 | 0.00 | 0.00 | 0.00 | 86 | 1011.6 |
| 20260502112428 | 46 | 298 | 0.0 | 1.0 | 0.00 | 0.00 | 0.00 | 86 | 1011.4 |
| 20260502111925 | 46 | 214 | 0.0 | 0.0 | 0.00 | 0.00 | 0.00 | 87 | 1011.7 |
| 20260502111422 | 46 | 288 | 0.0 | 0.0 | 0.00 | 0.00 | 0.00 | 87 | 1011.5 |
| 20260502110919 | 45 | 231 | 0.0 | 0.0 | 0.00 | 0.00 | 0.00 | 88 | 1011.5 |
| 20260502110417 | 45 | 175 | 0.0 | 0.0 | 0.00 | 0.00 | 0.00 | 88 | 1011.3 |
| 20260502105914 | 45 | 218 | 0.0 | 0.0 | 0.00 | 0.00 | 0.00 | 87 | 1011.3 |
| 20260502105411 | 45 | 258 | 0.0 | 0.0 | 0.00 | 0.00 | 0.00 | 86 | 1011.3 |
| 20260502104909 | 45 | 239 | 0.0 | 1.0 | 0.00 | 0.00 | 0.00 | 87 | 1011.2 |
| 20260502104406 | 45 | 304 | 0.0 | 0.0 | 0.00 | 0.00 | 0.00 | 86 | 1011.3 |
| 20260502103903 | 45 | 316 | 1.0 | 1.0 | 0.00 | 0.00 | 0.00 | 86 | 1011.4 |
| 20260502103401 | 45 | 303 | 0.0 | 0.0 | 0.00 | 0.00 | 0.00 | 86 | 1011.2 |
| 20260502102858 | 45 | 268 | 0.0 | 0.0 | 0.00 | 0.00 | 0.00 | 86 | 1011.1 |
| 20260502102354 | 45 | 269 | 0.0 | 0.0 | 0.00 | 0.00 | 0.00 | 86 | 1011.0 |
| 20260502101852 | 45 | 290 | 0.0 | 0.0 | 0.00 | 0.00 | 0.00 | 86 | 1010.8 |
| 20260502101350 | 45 | 264 | 0.0 | 1.0 | 0.00 | 0.00 | 0.00 | 86 | 1010.8 |
| 20260502100848 | 45 | 311 | 1.0 | 1.0 | 0.00 | 0.00 | 0.00 | 86 | 1011.2 |
| 20260502100347 | 45 | 292 | 0.0 | 1.0 | 0.00 | 0.00 | 0.00 | 85 | 1011.0 |
| 20260502091321 | 45 | 298 | 0.0 | 0.0 | 0.00 | 0.00 | 0.00 | 84 | 1010.7 |
| 20260502090819 | 45 | 242 | 0.0 | 0.0 | 0.00 | 0.00 | 0.00 | 84 | 1011.0 |
| 20260502090315 | 45 | 317 | 0.0 | 0.0 | 0.00 | 0.00 | 0.00 | 84 | 1010.8 |
| 20260502071210 | 45 | 349 | 0.0 | 0.0 | 0.00 | 0.00 | 0.00 | 78 | 1010.7 |
| 20260502070708 | 45 | 327 | 0.0 | 0.0 | 0.00 | 0.00 | 0.00 | 78 | 1011.0 |
| 20260502070206 | 45 | 239 | 0.0 | 0.0 | 0.00 | 0.00 | 0.00 | 78 | 1011.0 |
| 20260502065704 | 45 | 234 | 0.0 | 0.0 | 0.00 | 0.00 | 0.00 | 77 | 1010.8 |
| 20260502065201 | 45 | 234 | 0.0 | 0.0 | 0.00 | 0.00 | 0.00 | 77 | 1010.9 |
| 20260502064700 | 45 | 280 | 0.0 | 0.0 | 0.00 | 0.00 | 0.00 | 76 | 1011.1 |
| 20260502064156 | 45 | 247 | 0.0 | 0.0 | 0.00 | 0.00 | 0.00 | 76 | 1011.1 |
| 20260502063655 | 45 | 219 | 0.0 | 0.0 | 0.00 | 0.00 | 0.00 | 76 | 1011.0 |
| 20260502063152 | 46 | 236 | 0.0 | 0.0 | 0.00 | 0.00 | 0.00 | 74 | 1011.0 |
| 20260502062649 | 46 | 248 | 0.0 | 0.0 | 0.00 | 0.00 | 0.00 | 73 | 1011.0 |
| 20260502062147 | 46 | 316 | 1.0 | 1.0 | 0.00 | 0.00 | 0.00 | 73 | 1011.1 |
| 20260502061645 | 47 | 277 | 0.0 | 0.0 | 0.00 | 0.00 | 0.00 | 72 | 1011.2 |
| 20260502061142 | 47 | 281 | 0.0 | 2.0 | 0.00 | 0.00 | 0.00 | 71 | 1011.1 |
| 20260502060642 | 47 | 319 | 1.0 | 1.0 | 0.00 | 0.00 | 0.00 | 70 | 1011.3 |
| 20260502060139 | 48 | 267 | 0.0 | 1.0 | 0.00 | 0.00 | 0.00 | 70 | 1011.1 |
| 20260502055637 | 48 | 282 | 1.0 | 1.0 | 0.00 | 0.00 | 0.00 | 70 | 1011.4 |
| 20260502055135 | 48 | 309 | 1.0 | 2.0 | 0.00 | 0.00 | 0.00 | 68 | 1011.3 |
| 20260502054634 | 48 | 261 | 0.0 | 0.0 | 0.00 | 0.00 | 0.00 | 68 | 1011.3 |
| 20260502054130 | 48 | 294 | 1.0 | 2.0 | 0.00 | 0.00 | 0.00 | 68 | 1011.3 |
| 20260502053628 | 48 | 288 | 1.0 | 2.0 | 0.00 | 0.00 | 0.00 | 68 | 1011.3 |
| 20260502053125 | 48 | 288 | 1.0 | 2.0 | 0.00 | 0.00 | 0.00 | 69 | 1011.6 |
| 20260502052623 | 48 | 227 | 1.0 | 1.0 | 0.00 | 0.00 | 0.00 | 68 | 1011.6 |
| 20260502052121 | 48 | 312 | 1.0 | 2.0 | 0.00 | 0.00 | 0.00 | 68 | 1011.3 |
| 20260502051619 | 47 | 321 | 2.0 | 2.0 | 0.00 | 0.00 | 0.00 | 69 | 1011.5 |
| 20260502051117 | 47 | 299 | 2.0 | 2.0 | 0.00 | 0.00 | 0.00 | 70 | 1011.6 |
| 20260502050613 | 47 | 295 | 2.0 | 2.0 | 0.00 | 0.00 | 0.00 | 70 | 1011.7 |
| 20260502050109 | 47 | 264 | 1.0 | 2.0 | 0.00 | 0.00 | 0.00 | 70 | 1011.5 |